sat.trackr.live / text

‹ back to catalog

KUIPER-00440

NORAD 68942 · 2026-098Z

PAYLOAD ACTIVE UNKNOWN

§ Identity

Operator
Country
US
Launch date
2026-04-30
Launch site
FRGUI
Launch vehicle
Mass (kg)
RCS (m²)

External: N2YO · Heavens-Above · Gunter

§ Orbital elements

Epoch: 2026-05-25T02:51:42.348096Z

Period
93.85 min
Inclination
51.8766°
Eccentricity
0.0004817
Mean motion
15.34353666 rev/d
Perigee alt
459.5 km
Apogee alt
466.1 km
Semi-major
6,841.0 km
B*
5.0387e-4
RAAN
178.9093°
Arg perigee
79.1287°
Mean anomaly
281.0240°
Rev number
380

§ Raw data

KUIPER-004401 68942U 26098Z   26145.11924014  .00016679  00000+0  50387-3 0  99982 68942  51.8766 178.9093 0004817  79.1287 281.0240 15.34353666  3805

JSON: /api/v1/satellites/68942 · /tle

For live sub-satellite position, see the globe view (requires WebGL).

§ Visibility from observer

Set your observer location to see the next 7 days of passes ≥ 10°. The values pass through the URL so the page stays shareable.

No JS? Fill the form by hand. The geolocation button needs JavaScript.